{"data":{"norad_id":57080,"intl_designator":"2023-088AJ","name":"STARLINK-6243","alt_names":[],"object_type":"PAYLOAD","status":"ACTIVE","operator":null,"country":"US","launch_date":"2023-06-22","launch_site_code":"AFWTR","launch_vehicle":null,"mission":null,"orbit_class":"UNKNOWN","rcs_meters":null,"size_class":null,"mass_kg":null,"dimensions":null,"purposes":["comms"],"wikipedia_slug":null,"has_3d_model":false,"image_url":null,"decayed_at":null,"tle_current":{"epoch":"2026-05-25T00:58:46.062624Z","epoch_age_seconds":67696,"freshness":"FRESH","line1":"1 57080U 23088AJ  26145.04081091  .00000118  00000+0  13801-4 0  9998","line2":"2 57080  43.0058  25.2462 0001031 266.5006  93.5728 15.27575993162009","mean_motion":15.27575993,"eccentricity":0.0001031,"inclination_deg":43.0058,"raan_deg":25.2462,"arg_perigee_deg":266.5006,"mean_anomaly_deg":93.5728,"bstar":1.3801e-5,"rev_number":16200,"period_min":94.266995985711,"perigee_km":482.35370494185,"apogee_km":483.76848398893,"semimajor_km":6861.1980944654,"source":"CELESTRAK","updated_at":"2026-05-25T13:38:18.215386Z"}}}